MSR287 HESN-HECA

Flight info

Callsign MSR287
Flight time 1h 6m
Altitude 32000
Route ASN V738 AST W8 CVO
Aircraft A320/M-SDE3FGHIRWY/LB1

Departure

Time 2026-04-28 22:08
Airport Aswan International Airport (HESN)

Arrival

Time 2026-04-28 23:15
Airport Cairo International Airport (HECA)
Time Latitude Longitude Altitude Speed Heading
2026-04-28 21:46 23.96198 32.82449 655 ft 0 kts 122°
2026-04-28 22:02 23.96199 32.82449 655 ft 1 kts 122°
2026-04-28 22:02 23.96212 32.82425 654 ft 4 kts 120°
2026-04-28 22:02 23.96225 32.82400 654 ft 4 kts 122°
2026-04-28 22:02 23.96241 32.82377 654 ft 4 kts 148°
2026-04-28 22:03 23.96252 32.82372 654 ft 0 kts 172°
2026-04-28 22:04 23.96240 32.82373 654 ft 5 kts 172°
2026-04-28 22:04 23.96174 32.82384 656 ft 13 kts 172°
2026-04-28 22:05 23.96084 32.82398 656 ft 14 kts 171°
2026-04-28 22:05 23.95980 32.82415 657 ft 17 kts 172°
2026-04-28 22:05 23.95871 32.82400 659 ft 17 kts 237°
2026-04-28 22:05 23.95841 32.82273 659 ft 18 kts 235°
2026-04-28 22:06 23.95724 32.82265 661 ft 18 kts 173°
2026-04-28 22:06 23.95598 32.82285 661 ft 19 kts 170°
2026-04-28 22:06 23.95511 32.82301 662 ft 19 kts 171°
2026-04-28 22:06 23.95375 32.82325 664 ft 20 kts 169°
2026-04-28 22:07 23.95252 32.82330 666 ft 16 kts 210°
2026-04-28 22:07 23.95278 32.82199 664 ft 18 kts 340°
2026-04-28 22:07 23.95373 32.82181 662 ft 26 kts 351°
2026-04-28 22:07 23.96011 32.82070 659 ft 110 kts 351°
2026-04-28 22:08 23.96602 32.81967 649 ft 143 kts 351°
2026-04-28 22:08 23.97715 32.81776 785 ft 174 kts 351°
2026-04-28 22:08 23.98923 32.81573 1406 ft 174 kts 349°
2026-04-28 22:08 24.00116 32.81364 2069 ft 175 kts 349°
2026-04-28 22:09 24.01383 32.81139 2300 ft 196 kts 349°
2026-04-28 22:09 24.02814 32.80885 2580 ft 220 kts 349°
2026-04-28 22:09 24.04394 32.80551 2947 ft 241 kts 340°
2026-04-28 22:09 24.05894 32.79654 3637 ft 250 kts 327°
2026-04-28 22:10 24.07365 32.78616 4530 ft 252 kts 328°
2026-04-28 22:10 24.08834 32.77582 5352 ft 256 kts 328°
2026-04-28 22:10 24.10346 32.76516 6183 ft 261 kts 328°
2026-04-28 22:10 24.11887 32.75430 6986 ft 266 kts 328°
2026-04-28 22:11 24.13455 32.74325 7740 ft 270 kts 327°
2026-04-28 22:11 24.15055 32.73200 8463 ft 276 kts 327°
2026-04-28 22:11 24.16689 32.72049 9186 ft 282 kts 326°
2026-04-28 22:11 24.18350 32.70878 9889 ft 286 kts 326°
2026-04-28 22:12 24.20058 32.69673 10312 ft 301 kts 326°
2026-04-28 22:12 24.21885 32.68381 10467 ft 324 kts 326°
2026-04-28 22:12 24.23815 32.67014 10854 ft 335 kts 326°
2026-04-28 22:12 24.25787 32.65621 11476 ft 339 kts 326°
2026-04-28 22:13 24.27823 32.64305 12147 ft 341 kts 331°
2026-04-28 22:13 24.29937 32.63101 12833 ft 343 kts 331°
2026-04-28 22:13 24.32063 32.61892 13527 ft 345 kts 330°
2026-04-28 22:13 24.34203 32.60679 14157 ft 347 kts 331°
2026-04-28 22:14 24.36349 32.59463 14750 ft 348 kts 330°
2026-04-28 22:14 24.38505 32.58232 15338 ft 350 kts 330°
2026-04-28 22:14 24.40670 32.56995 15927 ft 351 kts 330°
2026-04-28 22:14 24.42847 32.55753 16518 ft 353 kts 330°
2026-04-28 22:15 24.45034 32.54503 17103 ft 355 kts 330°
2026-04-28 22:15 24.47205 32.53262 17690 ft 358 kts 330°
2026-04-28 22:15 24.49420 32.51995 18265 ft 361 kts 330°
2026-04-28 22:15 24.51680 32.50702 18787 ft 363 kts 330°
2026-04-28 22:16 24.53926 32.49417 19324 ft 365 kts 329°
2026-04-28 22:16 24.56184 32.48126 19880 ft 366 kts 330°
2026-04-28 22:16 24.58423 32.46849 20440 ft 368 kts 329°
2026-04-28 22:16 24.60700 32.45549 20999 ft 370 kts 329°
2026-04-28 22:17 24.62984 32.44238 21538 ft 372 kts 329°
2026-04-28 22:17 24.65285 32.42915 22058 ft 374 kts 329°
2026-04-28 22:17 24.67597 32.41588 22550 ft 376 kts 329°
2026-04-28 22:17 24.69922 32.40256 23093 ft 377 kts 329°
2026-04-28 22:18 24.72253 32.38920 23602 ft 379 kts 329°
2026-04-28 22:18 24.74599 32.37574 24016 ft 381 kts 329°
2026-04-28 22:18 24.76952 32.36222 24414 ft 383 kts 328°
2026-04-28 22:18 24.79314 32.34859 24827 ft 385 kts 328°
2026-04-28 22:19 24.81688 32.33487 25229 ft 386 kts 327°
2026-04-28 22:19 24.84077 32.32106 25610 ft 388 kts 327°
2026-04-28 22:19 24.86474 32.30723 25977 ft 390 kts 327°
2026-04-28 22:19 24.88884 32.29333 26337 ft 392 kts 327°
2026-04-28 22:20 24.91301 32.27938 26694 ft 393 kts 326°
2026-04-28 22:20 24.93733 32.26538 27027 ft 395 kts 326°
2026-04-28 22:20 24.96179 32.25130 27362 ft 397 kts 326°
2026-04-28 22:20 24.98634 32.23713 27703 ft 399 kts 326°
2026-04-28 22:21 25.01100 32.22287 28043 ft 401 kts 325°
2026-04-28 22:21 25.03583 32.20851 28382 ft 403 kts 325°
2026-04-28 22:21 25.06041 32.19432 28706 ft 405 kts 325°
2026-04-28 22:21 25.08575 32.17969 29044 ft 407 kts 325°
2026-04-28 22:22 25.11053 32.16536 29398 ft 409 kts 325°
2026-04-28 22:22 25.13607 32.15057 29717 ft 410 kts 325°
2026-04-28 22:22 25.16139 32.13591 30075 ft 411 kts 324°
2026-04-28 22:22 25.18631 32.12147 30442 ft 409 kts 324°
2026-04-28 22:23 25.21150 32.10684 30792 ft 409 kts 324°
2026-04-28 22:23 25.23658 32.09225 31127 ft 407 kts 323°
2026-04-28 22:23 25.26163 32.07768 31427 ft 407 kts 323°
2026-04-28 22:23 25.28675 32.06310 31765 ft 407 kts 323°
2026-04-28 22:24 25.31186 32.04855 31932 ft 407 kts 323°
2026-04-28 22:24 25.36171 32.01968 31983 ft 403 kts 323°
2026-04-28 22:25 25.41124 31.99090 32020 ft 402 kts 323°
2026-04-28 22:25 25.46064 31.96213 31988 ft 401 kts 323°
2026-04-28 22:26 25.51000 31.93336 31988 ft 401 kts 323°
2026-04-28 22:26 25.55932 31.90455 31963 ft 401 kts 323°
2026-04-28 22:27 25.60861 31.87575 31969 ft 400 kts 323°
2026-04-28 22:27 25.65762 31.84716 31963 ft 400 kts 323°
2026-04-28 22:27 25.68176 31.83304 32695 ft 401 kts 330°
2026-04-28 22:28 25.70663 31.81846 32028 ft 404 kts 323°
2026-04-28 22:28 25.75559 31.78974 32059 ft 404 kts 324°
2026-04-28 22:29 25.80501 31.76071 32056 ft 399 kts 323°
2026-04-28 22:29 25.85395 31.73200 31988 ft 397 kts 323°
2026-04-28 22:30 25.90281 31.70334 31998 ft 397 kts 323°
2026-04-28 22:30 25.95165 31.67458 31996 ft 397 kts 323°
2026-04-28 22:31 26.00047 31.64592 32000 ft 397 kts 323°
2026-04-28 22:31 26.04931 31.61713 32033 ft 397 kts 323°
2026-04-28 22:32 26.09812 31.58826 32025 ft 397 kts 323°
2026-04-28 22:32 26.14693 31.55936 32019 ft 397 kts 323°
2026-04-28 22:33 26.19570 31.53052 32017 ft 397 kts 323°
2026-04-28 22:33 26.24449 31.50170 32027 ft 397 kts 323°
2026-04-28 22:34 26.29287 31.47312 32033 ft 396 kts 323°
2026-04-28 22:34 26.34144 31.44431 32061 ft 396 kts 324°
2026-04-28 22:35 26.39004 31.41552 32049 ft 395 kts 324°
2026-04-28 22:35 26.43854 31.38672 32045 ft 395 kts 323°
2026-04-28 22:36 26.48696 31.35788 32042 ft 394 kts 324°
2026-04-28 22:36 26.53534 31.32911 32042 ft 394 kts 324°
2026-04-28 22:37 26.58381 31.30030 32039 ft 394 kts 324°
2026-04-28 22:37 26.63224 31.27146 32069 ft 394 kts 324°
2026-04-28 22:38 26.68064 31.24252 32071 ft 394 kts 324°
2026-04-28 22:38 26.72861 31.21383 32066 ft 393 kts 324°
2026-04-28 22:39 26.77687 31.18497 32080 ft 393 kts 324°
2026-04-28 22:39 26.82502 31.15618 32088 ft 392 kts 324°
2026-04-28 22:40 26.87315 31.12737 32099 ft 392 kts 324°
2026-04-28 22:40 26.92123 31.09850 32109 ft 392 kts 324°
2026-04-28 22:41 26.96930 31.06959 32120 ft 392 kts 324°
2026-04-28 22:41 27.01876 31.04326 32118 ft 402 kts 335°
2026-04-28 22:41 27.04654 31.03695 32118 ft 415 kts 345°
2026-04-28 22:42 27.07583 31.03702 32114 ft 428 kts 355°
2026-04-28 22:42 27.13521 31.04365 32109 ft 429 kts 356°
2026-04-28 22:43 27.19469 31.05039 32100 ft 429 kts 355°
2026-04-28 22:43 27.25415 31.05705 32111 ft 429 kts 356°
2026-04-28 22:44 27.31350 31.06362 32090 ft 428 kts 356°
2026-04-28 22:44 27.37279 31.07013 32074 ft 428 kts 356°
2026-04-28 22:45 27.43169 31.07657 32061 ft 428 kts 356°
2026-04-28 22:45 27.49082 31.08314 32062 ft 425 kts 356°
2026-04-28 22:46 27.54960 31.08964 32052 ft 424 kts 356°
2026-04-28 22:46 27.60829 31.09610 32056 ft 424 kts 356°
2026-04-28 22:47 27.66699 31.10259 32057 ft 424 kts 356°
2026-04-28 22:47 27.72571 31.10915 32080 ft 424 kts 356°
2026-04-28 22:48 27.78441 31.11563 32082 ft 423 kts 356°
2026-04-28 22:48 27.84302 31.12219 32079 ft 423 kts 356°
2026-04-28 22:49 27.90155 31.12875 32076 ft 422 kts 356°
2026-04-28 22:49 27.96002 31.13534 32115 ft 422 kts 356°
2026-04-28 22:50 28.01788 31.14189 32070 ft 419 kts 356°
2026-04-28 22:50 28.07592 31.14841 32066 ft 419 kts 356°
2026-04-28 22:51 28.13401 31.15484 32066 ft 419 kts 356°
2026-04-28 22:51 28.19204 31.16119 32063 ft 418 kts 356°
2026-04-28 22:52 28.25003 31.16766 32079 ft 419 kts 356°
2026-04-28 22:52 28.30797 31.17416 32076 ft 419 kts 356°
2026-04-28 22:52 28.33692 31.17742 31963 ft 416 kts 356°
2026-04-28 22:53 28.36554 31.18072 31715 ft 410 kts 356°
2026-04-28 22:53 28.39375 31.18396 31473 ft 406 kts 356°
2026-04-28 22:53 28.42177 31.18715 31229 ft 403 kts 356°
2026-04-28 22:53 28.44946 31.19028 30901 ft 397 kts 356°
2026-04-28 22:54 28.46766 31.19231 30566 ft 396 kts 357°
2026-04-28 22:54 28.50417 31.19635 29902 ft 393 kts 357°
2026-04-28 22:54 28.52210 31.19834 29577 ft 390 kts 357°
2026-04-28 22:54 28.55760 31.20232 28985 ft 384 kts 357°
2026-04-28 22:55 28.58406 31.20530 28540 ft 380 kts 357°
2026-04-28 22:55 28.60182 31.20729 28245 ft 378 kts 357°
2026-04-28 22:55 28.63627 31.21113 27689 ft 374 kts 357°
2026-04-28 22:55 28.66217 31.21400 27263 ft 372 kts 357°
2026-04-28 22:56 28.67946 31.21594 26990 ft 371 kts 358°
2026-04-28 22:56 28.70517 31.21884 26574 ft 371 kts 358°
2026-04-28 22:56 28.73081 31.22185 26138 ft 371 kts 358°
2026-04-28 22:56 28.75645 31.22496 25725 ft 370 kts 358°
2026-04-28 22:57 28.77335 31.22704 25454 ft 369 kts 359°
2026-04-28 22:57 28.79705 31.22995 25069 ft 368 kts 359°
2026-04-28 22:57 28.82251 31.23307 24665 ft 367 kts 359°
2026-04-28 22:57 28.84791 31.23614 24257 ft 366 kts 359°
2026-04-28 22:58 28.87292 31.23913 23840 ft 366 kts 359°
2026-04-28 22:58 28.89821 31.24217 23372 ft 366 kts 359°
2026-04-28 22:58 28.92345 31.24524 22919 ft 363 kts 359°
2026-04-28 22:58 28.94847 31.24829 22501 ft 360 kts 359°
2026-04-28 22:59 28.97337 31.25131 22047 ft 359 kts 359°
2026-04-28 22:59 28.99815 31.25434 21600 ft 357 kts 359°
2026-04-28 22:59 29.02280 31.25732 21157 ft 355 kts 359°
2026-04-28 22:59 29.04733 31.26025 20705 ft 354 kts 359°
2026-04-28 23:00 29.07178 31.26317 20261 ft 353 kts 360°
2026-04-28 23:00 29.09623 31.26613 19804 ft 353 kts 360°
2026-04-28 23:00 29.12074 31.26912 19216 ft 356 kts 360°
2026-04-28 23:00 29.14535 31.27157 18755 ft 354 kts 357°
2026-04-28 23:01 29.16986 31.27291 18302 ft 351 kts 356°
2026-04-28 23:01 29.19422 31.27361 17825 ft 349 kts 356°
2026-04-28 23:01 29.21841 31.27406 17368 ft 346 kts 356°
2026-04-28 23:01 29.24238 31.27449 16939 ft 343 kts 356°
2026-04-28 23:02 29.26616 31.27505 16507 ft 341 kts 356°
2026-04-28 23:02 29.28984 31.27576 16068 ft 339 kts 357°
2026-04-28 23:02 29.31308 31.27655 15643 ft 337 kts 357°
2026-04-28 23:02 29.33647 31.27741 15211 ft 336 kts 357°
2026-04-28 23:03 29.35980 31.27830 14783 ft 334 kts 358°
2026-04-28 23:03 29.38302 31.27915 14356 ft 333 kts 358°
2026-04-28 23:03 29.40614 31.27997 13931 ft 332 kts 358°
2026-04-28 23:03 29.42918 31.28078 13476 ft 330 kts 358°
2026-04-28 23:04 29.45206 31.28160 13050 ft 328 kts 358°
2026-04-28 23:04 29.49724 31.28329 12218 ft 322 kts 358°
2026-04-28 23:04 29.51954 31.28410 11816 ft 319 kts 358°
2026-04-28 23:05 29.54170 31.28491 11406 ft 317 kts 358°
2026-04-28 23:05 29.56367 31.28567 11002 ft 315 kts 358°
2026-04-28 23:05 29.58552 31.28643 10602 ft 313 kts 359°
2026-04-28 23:05 29.60720 31.28721 10231 ft 310 kts 359°
2026-04-28 23:06 29.62834 31.28799 10104 ft 298 kts 359°
2026-04-28 23:06 29.64872 31.28876 9991 ft 288 kts 359°
2026-04-28 23:06 29.66852 31.28948 9708 ft 283 kts 359°
2026-04-28 23:06 29.68838 31.29018 9307 ft 283 kts 359°
2026-04-28 23:07 29.70785 31.29089 8817 ft 278 kts 359°
2026-04-28 23:07 29.72683 31.29158 8427 ft 278 kts 359°
2026-04-28 23:07 29.74595 31.28995 8047 ft 275 kts 346°
2026-04-28 23:07 29.76447 31.28464 7672 ft 274 kts 343°
2026-04-28 23:08 29.78289 31.27927 7360 ft 272 kts 343°
2026-04-28 23:08 29.80126 31.27397 7004 ft 271 kts 344°
2026-04-28 23:08 29.81955 31.26872 6634 ft 271 kts 344°
2026-04-28 23:08 29.83779 31.26345 6260 ft 271 kts 343°
2026-04-28 23:09 29.85598 31.25822 5900 ft 269 kts 344°
2026-04-28 23:09 29.87407 31.25306 5450 ft 265 kts 344°
2026-04-28 23:09 29.89199 31.24793 5078 ft 266 kts 344°
2026-04-28 23:09 29.91003 31.24274 4704 ft 267 kts 344°
2026-04-28 23:10 29.92786 31.23761 4312 ft 268 kts 345°
2026-04-28 23:10 29.94620 31.23234 3941 ft 268 kts 347°
2026-04-28 23:10 29.96449 31.23185 3577 ft 269 kts 12°
2026-04-28 23:10 29.98109 31.24132 3313 ft 266 kts 40°
2026-04-28 23:11 29.99350 31.25676 3106 ft 257 kts 47°
2026-04-28 23:11 30.00476 31.27176 2901 ft 236 kts 47°
2026-04-28 23:11 30.01503 31.28546 2717 ft 217 kts 47°
2026-04-28 23:11 30.02456 31.29818 2553 ft 201 kts 47°
2026-04-28 23:12 30.03329 31.30982 2360 ft 185 kts 47°
2026-04-28 23:12 30.04151 31.32077 2081 ft 175 kts 48°
2026-04-28 23:12 30.04917 31.33096 1853 ft 162 kts 48°
2026-04-28 23:12 30.05629 31.34042 1640 ft 150 kts 48°
2026-04-28 23:13 30.06301 31.34934 1416 ft 145 kts 48°
2026-04-28 23:13 30.06950 31.35815 1247 ft 143 kts 50°
2026-04-28 23:13 30.07599 31.36689 1039 ft 143 kts 49°
2026-04-28 23:13 30.08249 31.37556 850 ft 143 kts 49°
2026-04-28 23:14 30.08907 31.38411 671 ft 142 kts 50°
2026-04-28 23:14 30.09556 31.39263 514 ft 141 kts 50°
2026-04-28 23:14 30.10194 31.40122 388 ft 141 kts 51°
2026-04-28 23:14 30.10745 31.40859 371 ft 98 kts 49°
2026-04-28 23:15 30.11080 31.41301 375 ft 53 kts 48°
2026-04-28 23:15 30.11316 31.41555 374 ft 39 kts 32°
2026-04-28 23:15 30.11516 31.41627 374 ft 24 kts 355°
2026-04-28 23:15 30.11527 31.41494 374 ft 22 kts 229°
2026-04-28 23:16 30.11429 31.41369 374 ft 18 kts 229°
2026-04-28 23:16 30.11418 31.41240 374 ft 18 kts 285°
2026-04-28 23:16 30.11358 31.41118 374 ft 19 kts 228°
2026-04-28 23:16 30.11268 31.40997 375 ft 21 kts 229°
2026-04-28 23:17 30.11171 31.40869 375 ft 21 kts 229°
2026-04-28 23:17 30.11071 31.40737 375 ft 22 kts 229°
2026-04-28 23:17 30.10969 31.40600 374 ft 23 kts 229°
2026-04-28 23:17 30.10869 31.40467 374 ft 22 kts 229°
2026-04-28 23:18 30.10769 31.40334 374 ft 22 kts 227°
2026-04-28 23:18 30.10665 31.40198 374 ft 23 kts 229°
2026-04-28 23:18 30.10558 31.40058 374 ft 24 kts 229°
2026-04-28 23:18 30.10490 31.39903 374 ft 21 kts 290°
2026-04-28 23:19 30.10615 31.39835 374 ft 19 kts 344°
2026-04-28 23:19 30.10738 31.39797 374 ft 16 kts 346°
2026-04-28 23:19 30.10847 31.39763 374 ft 17 kts 345°
2026-04-28 23:19 30.10912 31.39807 374 ft 9 kts 69°
2026-04-28 23:20 30.10919 31.39835 374 ft 0 kts 74°
2026-04-28 23:20 30.10920 31.39835 374 ft 0 kts 74°